Location: Ford County Road and Bridge Department
(37.7686°N, 99.9762°W)
Time: 18:01:34
(UTC+00:00)

CSL-04 Debris - Pass Details

Date: 18 January 2020
Orbit: 828 x 848 km, 99.0° (Epoch: 22 February)

Event Time Altitude Azimuth Distance (km) Brightness Sun altitude
Rises 01:14:30 0° 163° (SSE) 3,353 7.3 -17.2°
Reaches altitude 10° 01:16:50 10° 162° (SSE) 2,423 6.5 -17.6°
Maximum altitude 01:22:13 84° 75° (ENE) 837 4.1 -18.6°
Drops below altitude 10° 01:27:37 10° 348° (NNW) 2,440 6.6 -19.7°
Sets 01:29:59 0° 348° (NNW) 3,378 7.4 -20.2°
